| time (UTC) | temp F | wind direction | speed knots | gust knots | rain 1hr in | rain 24hr in | rain mn in | humidity % | barometer mb |
| 20260505114202 | 46 | 297 | 1.7 | 6.1 | 0.00 | 0.03 | 0.01 | 79 | 1002.8 |
| 20260505113702 | 46 | 294 | 1.7 | 6.1 | 0.00 | 0.03 | 0.01 | 81 | 1002.5 |
| 20260505113451 | 46 | 308 | 1.7 | 6.1 | 0.00 | 0.03 | 0.01 | 85 | 1002.7 |
| 20260505112702 | 46 | 55 | 1.7 | 6.1 | 0.00 | 0.03 | 0.01 | 85 | 1002.6 |
| 20260505112202 | 46 | 317 | 1.7 | 6.1 | 0.00 | 0.03 | 0.01 | 85 | 1002.2 |
| 20260505111948 | 46 | 310 | 1.7 | 5.2 | 0.00 | 0.03 | 0.01 | 86 | 1002.2 |
| 20260505111203 | 47 | 336 | 1.7 | 4.3 | 0.00 | 0.03 | 0.01 | 87 | 1002.1 |
| 20260505110703 | 47 | 309 | 1.7 | 5.2 | 0.00 | 0.03 | 0.01 | 88 | 1002.0 |
| 20260505110203 | 47 | 355 | 0.9 | 5.2 | 0.00 | 0.03 | 0.01 | 88 | 1001.9 |
| 20260505102203 | 56 | 300 | 0.9 | 4.3 | 0.00 | 0.03 | 0.01 | 89 | 1000.4 |
| 20260505101951 | 56 | 0 | 0.9 | 4.3 | 0.00 | 0.03 | 0.01 | 88 | 1000.5 |
| 20260505101203 | 56 | 162 | 0.9 | 4.3 | 0.00 | 0.03 | 0.01 | 88 | 1000.4 |
| 20260505100951 | 57 | 223 | 0.9 | 3.5 | 0.00 | 0.03 | 0.01 | 88 | 1000.3 |
| 20260505100202 | 57 | 349 | 0.9 | 6.1 | 0.00 | 0.03 | 0.01 | 87 | 1000.3 |
| 20260505095702 | 57 | 219 | 1.7 | 6.1 | 0.00 | 0.03 | 0.01 | 87 | 1000.2 |
| 20260505095202 | 57 | 246 | 1.7 | 5.2 | 0.00 | 0.03 | 0.01 | 87 | 1000.1 |
| 20260505094703 | 57 | 350 | 0.9 | 5.2 | 0.00 | 0.03 | 0.01 | 87 | 999.9 |
| 20260505094202 | 57 | 230 | 0.9 | 4.3 | 0.00 | 0.03 | 0.01 | 87 | 999.9 |
| 20260505093702 | 57 | 303 | 1.7 | 7.0 | 0.00 | 0.03 | 0.01 | 86 | 999.8 |
| 20260505093202 | 57 | 137 | 1.7 | 7.0 | 0.00 | 0.03 | 0.01 | 86 | 999.8 |
| 20260505092702 | 57 | 214 | 1.7 | 6.1 | 0.00 | 0.03 | 0.01 | 86 | 999.7 |
| 20260505092202 | 57 | 164 | 1.7 | 5.2 | 0.00 | 0.03 | 0.01 | 86 | 999.7 |
| 20260505091951 | 57 | 307 | 1.7 | 5.2 | 0.00 | 0.03 | 0.01 | 86 | 999.6 |
| 20260505091450 | 57 | 289 | 1.7 | 5.2 | 0.00 | 0.03 | 0.01 | 86 | 999.6 |
| 20260505090703 | 58 | 245 | 1.7 | 6.1 | 0.00 | 0.03 | 0.01 | 86 | 999.5 |
| 20260505090202 | 58 | 192 | 1.7 | 6.1 | 0.00 | 0.03 | 0.01 | 85 | 999.5 |
| 20260505090031 | 58 | 175 | 1.7 | 6.1 | 0.00 | 0.03 | 0.01 | 85 | 999.4 |
| 20260505090026 | 58 | 221 | 1.7 | 6.1 | 0.00 | 0.03 | 0.01 | 85 | 999.5 |
| 20260505084949 | 58 | 127 | 1.7 | 6.1 | 0.00 | 0.03 | 0.01 | 85 | 999.4 |
| 20260505084244 | 58 | 220 | 0.9 | 6.1 | 0.00 | 0.03 | 0.01 | 84 | 999.2 |
| 20260505084229 | 58 | 225 | 0.9 | 6.1 | 0.00 | 0.03 | 0.01 | 85 | 999.4 |
| 20260505083203 | 58 | 0 | 0.9 | 4.3 | 0.00 | 0.03 | 0.01 | 84 | 999.2 |
| 20260505082702 | 58 | 270 | 1.7 | 4.3 | 0.00 | 0.03 | 0.01 | 84 | 999.3 |
| 20260505082449 | 58 | 187 | 0.9 | 4.3 | 0.00 | 0.03 | 0.01 | 84 | 999.2 |
| 20260505081702 | 58 | 152 | 0.0 | 2.6 | 0.00 | 0.03 | 0.01 | 83 | 999.4 |
| 20260505081202 | 58 | 0 | 0.9 | 4.3 | 0.00 | 0.03 | 0.01 | 83 | 999.1 |
| 20260505080702 | 59 | 0 | 0.9 | 5.2 | 0.00 | 0.03 | 0.01 | 82 | 999.0 |
| 20260505080202 | 59 | 265 | 1.7 | 5.2 | 0.00 | 0.03 | 0.01 | 82 | 998.5 |
| 20260505075950 | 59 | 236 | 1.7 | 4.3 | 0.00 | 0.03 | 0.01 | 82 | 998.5 |
| 20260505075202 | 59 | 0 | 1.7 | 5.2 | 0.00 | 0.03 | 0.01 | 81 | 998.4 |
| 20260505074745 | 59 | 280 | 1.7 | 7.0 | 0.00 | 0.03 | 0.01 | 80 | 998.4 |
| 20260505074730 | 59 | 261 | 1.7 | 6.1 | 0.00 | 0.03 | 0.01 | 81 | 998.4 |
| 20260505073702 | 59 | 197 | 1.7 | 7.0 | 0.00 | 0.03 | 0.01 | 80 | 998.5 |
| 20260505073202 | 59 | 206 | 1.7 | 7.0 | 0.00 | 0.03 | 0.01 | 80 | 998.6 |
| 20260505073024 | 59 | 0 | 1.7 | 7.0 | 0.01 | 0.03 | 0.01 | 80 | 998.7 |
| 20260505072729 | 59 | 291 | 1.7 | 6.1 | 0.00 | 0.03 | 0.01 | 80 | 998.7 |
| 20260505071701 | 60 | 0 | 1.7 | 7.0 | 0.01 | 0.03 | 0.01 | 79 | 998.7 |
| 20260505071202 | 60 | 247 | 1.7 | 7.0 | 0.01 | 0.03 | 0.01 | 79 | 998.7 |
| 20260505070945 | 60 | 271 | 1.7 | 5.2 | 0.01 | 0.03 | 0.01 | 79 | 998.6 |
| 20260505070202 | 60 | 294 | 1.7 | 8.7 | 0.01 | 0.03 | 0.01 | 79 | 998.6 |
| 20260505065702 | 60 | 105 | 1.7 | 8.7 | 0.01 | 0.03 | 0.01 | 79 | 998.7 |
| 20260505065202 | 60 | 227 | 1.7 | 7.0 | 0.01 | 0.03 | 0.01 | 79 | 998.9 |
| 20260505064702 | 60 | 323 | 1.7 | 7.0 | 0.01 | 0.03 | 0.01 | 79 | 998.7 |
| 20260505064202 | 61 | 242 | 1.7 | 5.2 | 0.01 | 0.03 | 0.01 | 79 | 998.7 |
| 20260505063701 | 61 | 239 | 1.7 | 5.2 | 0.01 | 0.03 | 0.01 | 78 | 998.9 |
| 20260505063204 | 62 | 328 | 2.6 | 6.1 | 0.01 | 0.03 | 0.00 | 77 | 998.9 |
| 20260505062945 | 62 | 217 | 2.6 | 7.0 | 0.00 | 0.02 | 0.00 | 76 | 999.0 |
| 20260505062444 | 62 | 172 | 2.6 | 7.0 | 0.00 | 0.02 | 0.00 | 75 | 998.7 |
| 20260505061703 | 62 | 163 | 2.6 | 8.7 | 0.00 | 0.02 | 0.00 | 75 | 999.0 |
| 20260505061202 | 62 | 316 | 2.6 | 8.7 | 0.00 | 0.02 | 0.00 | 75 | 999.0 |
| 20260505060702 | 62 | 183 | 2.6 | 7.8 | 0.00 | 0.02 | 0.00 | 74 | 999.1 |
| 20260505060203 | 63 | 186 | 2.6 | 8.7 | 0.00 | 0.02 | 0.00 | 74 | 999.3 |
| 20260505055702 | 63 | 235 | 3.5 | 9.6 | 0.00 | 0.02 | 0.00 | 74 | 999.4 |
| 20260505055203 | 63 | 229 | 4.3 | 11.3 | 0.00 | 0.02 | 0.00 | 73 | 999.4 |
| 20260505054703 | 63 | 168 | 3.5 | 11.3 | 0.00 | 0.02 | 0.00 | 73 | 999.4 |
| 20260505054203 | 63 | 238 | 3.5 | 11.3 | 0.00 | 0.02 | 0.00 | 73 | 999.4 |
| 20260505053703 | 62 | 229 | 3.5 | 9.6 | 0.00 | 0.02 | 0.00 | 73 | 999.4 |
| 20260505053203 | 62 | 218 | 2.6 | 9.6 | 0.00 | 0.02 | 0.00 | 73 | 999.2 |
| 20260505052702 | 62 | 243 | 2.6 | 7.0 | 0.00 | 0.02 | 0.00 | 75 | 999.4 |
| 20260505052202 | 62 | 190 | 2.6 | 7.8 | 0.00 | 0.02 | 0.00 | 75 | 999.4 |
| 20260505051703 | 61 | 205 | 3.5 | 7.8 | 0.00 | 0.02 | 0.00 | 76 | 999.5 |
| 20260505051204 | 62 | 228 | 3.5 | 7.8 | 0.00 | 0.02 | 0.00 | 76 | 999.5 |
| 20260505050704 | 62 | 232 | 3.5 | 7.8 | 0.00 | 0.02 | 0.00 | 75 | 999.5 |
| 20260505050203 | 61 | 243 | 3.5 | 7.0 | 0.00 | 0.02 | 0.00 | 76 | 999.4 |
| 20260505041703 | 60 | 241 | 3.5 | 7.8 | 0.00 | 0.02 | 0.00 | 79 | 999.6 |
| 20260505041203 | 60 | 229 | 3.5 | 7.8 | 0.00 | 0.02 | 0.00 | 80 | 999.6 |
| 20260505040704 | 60 | 229 | 3.5 | 7.8 | 0.00 | 0.02 | 0.00 | 80 | 999.6 |
| 20260505040446 | 60 | 219 | 3.5 | 7.8 | 0.00 | 0.02 | 0.00 | 80 | 999.6 |
| 20260505035702 | 60 | 238 | 3.5 | 7.8 | 0.00 | 0.02 | 0.02 | 80 | 999.6 |
| 20260505035444 | 60 | 233 | 3.5 | 7.8 | 0.00 | 0.02 | 0.02 | 81 | 999.7 |
| 20260505034702 | 60 | 235 | 3.5 | 7.8 | 0.00 | 0.02 | 0.02 | 81 | 999.8 |
| 20260505034445 | 61 | 207 | 3.5 | 8.7 | 0.00 | 0.02 | 0.02 | 80 | 999.9 |
| 20260505033702 | 61 | 150 | 4.3 | 8.7 | 0.00 | 0.02 | 0.02 | 79 | 999.8 |
| 20260505033203 | 61 | 211 | 3.5 | 7.8 | 0.00 | 0.02 | 0.02 | 78 | 999.8 |
| 20260505032703 | 61 | 230 | 3.5 | 7.8 | 0.00 | 0.02 | 0.02 | 78 | 1000.0 |
| 20260505032202 | 61 | 196 | 3.5 | 7.0 | 0.00 | 0.02 | 0.02 | 77 | 1000.0 |
| 20260505031702 | 61 | 91 | 3.5 | 8.7 | 0.00 | 0.02 | 0.02 | 77 | 1000.1 |
| 20260505031444 | 61 | 239 | 3.5 | 8.7 | 0.00 | 0.02 | 0.02 | 77 | 1000.1 |
| 20260505030702 | 61 | 225 | 3.5 | 8.7 | 0.00 | 0.02 | 0.02 | 78 | 1000.2 |
| 20260505030201 | 61 | 240 | 3.5 | 8.7 | 0.00 | 0.02 | 0.02 | 77 | 1000.3 |
| 20260505025946 | 62 | 218 | 3.5 | 7.8 | 0.00 | 0.02 | 0.02 | 77 | 1000.3 |
| 20260505025204 | 62 | 212 | 3.5 | 7.8 | 0.00 | 0.02 | 0.02 | 77 | 1000.4 |
| 20260505024702 | 62 | 207 | 4.3 | 8.7 | 0.00 | 0.02 | 0.02 | 77 | 1000.4 |
| 20260505024201 | 62 | 221 | 4.3 | 8.7 | 0.00 | 0.02 | 0.02 | 76 | 1000.3 |
| 20260505023701 | 62 | 225 | 4.3 | 9.6 | 0.00 | 0.02 | 0.02 | 76 | 1000.3 |
| 20260505023202 | 62 | 227 | 5.2 | 9.6 | 0.02 | 0.02 | 0.02 | 75 | 1000.3 |
| 20260505022701 | 62 | 266 | 5.2 | 15.6 | 0.02 | 0.02 | 0.02 | 75 | 1000.2 |
| 20260505022201 | 62 | 218 | 4.3 | 15.6 | 0.02 | 0.02 | 0.02 | 74 | 1000.3 |
| 20260505021701 | 62 | 215 | 4.3 | 9.6 | 0.02 | 0.02 | 0.02 | 75 | 1000.4 |
| 20260505021202 | 62 | 235 | 3.5 | 9.6 | 0.02 | 0.02 | 0.02 | 74 | 1000.2 |
| 20260505020702 | 62 | 229 | 3.5 | 7.8 | 0.02 | 0.02 | 0.02 | 75 | 1000.4 |
| 20260505020202 | 62 | 219 | 3.5 | 7.8 | 0.02 | 0.02 | 0.02 | 75 | 1000.5 |
| 20260505015702 | 62 | 183 | 3.5 | 7.8 | 0.02 | 0.02 | 0.02 | 76 | 1000.5 |
| 20260505015203 | 62 | 217 | 2.6 | 7.8 | 0.02 | 0.02 | 0.02 | 76 | 1000.5 |
| 20260505014703 | 62 | 221 | 1.7 | 7.8 | 0.02 | 0.02 | 0.02 | 76 | 1000.7 |
| 20260505014203 | 63 | 165 | 0.9 | 3.5 | 0.02 | 0.02 | 0.02 | 77 | 1000.9 |
| 20260505013950 | 64 | 0 | 0.9 | 4.3 | 0.02 | 0.02 | 0.02 | 75 | 1001.0 |
| 20260505013202 | 65 | 0 | 1.7 | 7.8 | 0.00 | 0.00 | 0.00 | 70 | 1000.9 |
| 20260505012703 | 65 | 295 | 1.7 | 7.8 | 0.00 | 0.00 | 0.00 | 68 | 1000.7 |
| 20260505012203 | 66 | 221 | 3.5 | 9.6 | 0.00 | 0.00 | 0.00 | 70 | 1000.4 |
| 20260505011703 | 66 | 261 | 4.3 | 9.6 | 0.00 | 0.00 | 0.00 | 68 | 999.7 |
| 20260505011203 | 66 | 226 | 3.5 | 8.7 | 0.00 | 0.00 | 0.00 | 68 | 999.7 |
| 20260505010702 | 66 | 216 | 3.5 | 7.8 | 0.00 | 0.00 | 0.00 | 68 | 999.2 |
| 20260505010202 | 66 | 189 | 2.6 | 8.7 | 0.00 | 0.00 | 0.00 | 67 | 998.9 |
| 20260505005950 | 66 | 201 | 2.6 | 8.7 | 0.00 | 0.00 | 0.00 | 67 | 998.9 |
| 20260505005202 | 66 | 224 | 2.6 | 7.8 | 0.00 | 0.00 | 0.00 | 66 | 999.0 |
| 20260505004702 | 67 | 189 | 2.6 | 5.2 | 0.00 | 0.00 | 0.00 | 66 | 999.0 |
| 20260505004202 | 67 | 234 | 2.6 | 7.0 | 0.00 | 0.00 | 0.00 | 65 | 998.9 |
| 20260505003702 | 67 | 220 | 2.6 | 7.0 | 0.00 | 0.00 | 0.00 | 64 | 998.9 |
| 20260505003202 | 68 | 222 | 2.6 | 7.0 | 0.00 | 0.00 | 0.00 | 64 | 998.9 |
| 20260505002702 | 68 | 224 | 2.6 | 6.1 | 0.00 | 0.00 | 0.00 | 63 | 999.0 |
| 20260505002238 | 69 | 242 | 3.5 | 7.0 | 0.00 | 0.00 | 0.00 | 62 | 999.0 |
| 20260505002228 | 69 | 241 | 2.6 | 6.1 | 0.00 | 0.00 | 0.00 | 62 | 999.0 |
| 20260505001203 | 69 | 194 | 3.5 | 8.7 | 0.00 | 0.00 | 0.00 | 61 | 999.0 |
| 20260505000702 | 69 | 300 | 3.5 | 11.3 | 0.00 | 0.00 | 0.00 | 61 | 999.1 |
| 20260505000204 | 69 | 228 | 3.5 | 11.3 | 0.00 | 0.00 | 0.00 | 60 | 999.1 |
| 20260504235949 | 70 | 203 | 3.5 | 11.3 | 0.00 | 0.00 | 0.00 | 60 | 999.0 |
| 20260504235202 | 70 | 246 | 3.5 | 9.6 | 0.00 | 0.00 | 0.00 | 59 | 999.1 |
| 20260504234703 | 70 | 253 | 4.3 | 9.6 | 0.00 | 0.00 | 0.00 | 58 | 999.0 |
| 20260504234203 | 70 | 231 | 4.3 | 9.6 | 0.00 | 0.00 | 0.00 | 58 | 999.0 |
| 20260504233702 | 70 | 221 | 4.3 | 12.2 | 0.00 | 0.00 | 0.00 | 58 | 999.0 |
| 20260504233202 | 71 | 266 | 4.3 | 12.2 | 0.00 | 0.00 | 0.00 | 57 | 998.9 |
| 20260504232703 | 71 | 227 | 4.3 | 8.7 | 0.00 | 0.00 | 0.00 | 57 | 999.1 |
| 20260504232203 | 71 | 200 | 5.2 | 9.6 | 0.00 | 0.00 | 0.00 | 56 | 999.1 |
| 20260504231703 | 71 | 222 | 5.2 | 13.0 | 0.00 | 0.00 | 0.00 | 54 | 999.1 |
| 20260504231203 | 72 | 214 | 6.1 | 13.0 | 0.00 | 0.00 | 0.00 | 54 | 999.2 |
| 20260504230704 | 72 | 233 | 6.1 | 12.2 | 0.00 | 0.00 | 0.00 | 53 | 999.2 |
| 20260504230203 | 72 | 218 | 5.2 | 12.2 | 0.00 | 0.00 | 0.00 | 52 | 999.3 |
| 20260504225704 | 72 | 200 | 4.3 | 12.2 | 0.00 | 0.00 | 0.00 | 51 | 999.4 |
| 20260504225204 | 72 | 284 | 4.3 | 12.2 | 0.00 | 0.00 | 0.00 | 51 | 999.5 |
| 20260504224704 | 72 | 196 | 5.2 | 11.3 | 0.00 | 0.00 | 0.00 | 52 | 999.6 |
| 20260504224448 | 72 | 154 | 5.2 | 11.3 | 0.00 | 0.00 | 0.00 | 50 | 999.7 |
| 20260504223703 | 72 | 220 | 5.2 | 10.4 | 0.00 | 0.00 | 0.00 | 50 | 999.7 |
| 20260504223203 | 72 | 182 | 5.2 | 10.4 | 0.00 | 0.00 | 0.00 | 52 | 999.8 |
| 20260504222704 | 72 | 154 | 6.1 | 12.2 | 0.00 | 0.00 | 0.00 | 53 | 999.9 |
| 20260504222203 | 72 | 225 | 6.1 | 12.2 | 0.00 | 0.00 | 0.00 | 53 | 999.9 |
| 20260504221738 | 72 | 268 | 6.1 | 13.9 | 0.00 | 0.00 | 0.00 | 53 | 999.9 |
| 20260504221728 | 72 | 196 | 6.1 | 13.9 | 0.00 | 0.00 | 0.00 | 53 | 999.9 |
| 20260504220949 | 72 | 223 | 6.1 | 12.2 | 0.00 | 0.00 | 0.00 | 53 | 999.9 |
| 20260504220202 | 72 | 268 | 7.0 | 13.9 | 0.00 | 0.00 | 0.00 | 53 | 1000.0 |
| 20260504215702 | 72 | 294 | 6.1 | 13.9 | 0.00 | 0.00 | 0.00 | 52 | 1000.1 |
| 20260504215203 | 72 | 211 | 7.0 | 15.6 | 0.00 | 0.00 | 0.00 | 53 | 999.9 |
| 20260504214702 | 72 | 232 | 7.0 | 15.6 | 0.00 | 0.00 | 0.00 | 52 | 1000.1 |
| 20260504214202 | 72 | 189 | 7.0 | 13.0 | 0.00 | 0.00 | 0.00 | 52 | 999.9 |
| 20260504213702 | 72 | 224 | 7.0 | 15.6 | 0.00 | 0.00 | 0.00 | 52 | 999.8 |
| 20260504213202 | 71 | 213 | 7.0 | 15.6 | 0.00 | 0.00 | 0.00 | 52 | 1000.1 |
| 20260504212950 | 72 | 136 | 7.0 | 13.0 | 0.00 | 0.00 | 0.00 | 51 | 1000.1 |
| 20260504212202 | 72 | 200 | 7.0 | 16.5 | 0.00 | 0.00 | 0.00 | 51 | 1000.1 |
| 20260504211703 | 71 | 160 | 7.8 | 18.2 | 0.00 | 0.00 | 0.00 | 51 | 1000.1 |
| 20260504211202 | 72 | 236 | 7.0 | 18.2 | 0.00 | 0.00 | 0.00 | 51 | 1000.3 |
| 20260504210703 | 72 | 239 | 6.1 | 14.8 | 0.00 | 0.00 | 0.00 | 52 | 1000.3 |
| 20260504210203 | 72 | 180 | 6.1 | 13.0 | 0.00 | 0.00 | 0.00 | 51 | 1000.3 |
| 20260504205702 | 73 | 184 | 6.1 | 13.0 | 0.00 | 0.00 | 0.00 | 51 | 1000.3 |
| 20260504205201 | 73 | 218 | 6.1 | 12.2 | 0.00 | 0.00 | 0.00 | 50 | 1000.2 |
| 20260504204700 | 73 | 207 | 7.0 | 13.0 | 0.00 | 0.00 | 0.00 | 51 | 1000.3 |
| 20260504204200 | 73 | 211 | 5.2 | 13.0 | 0.00 | 0.00 | 0.00 | 51 | 1000.3 |
| 20260504203701 | 74 | 261 | 4.3 | 10.4 | 0.00 | 0.00 | 0.00 | 50 | 1000.1 |
| 20260504203521 | 74 | 198 | 5.2 | 10.4 | 0.00 | 0.00 | 0.00 | 46 | 1000.3 |
| 20260504203517 | 74 | 144 | 4.3 | 10.4 | 0.00 | 0.00 | 0.00 | 44 | 1000.0 |
| 20260504202200 | 74 | 249 | 6.1 | 13.0 | 0.00 | 0.00 | 0.00 | 46 | 1000.3 |
| 20260504201701 | 74 | 280 | 6.1 | 13.0 | 0.00 | 0.00 | 0.00 | 47 | 1000.4 |
| 20260504201205 | 74 | 229 | 5.2 | 11.3 | 0.00 | 0.00 | 0.00 | 47 | 1000.5 |
| 20260504200703 | 74 | 189 | 6.1 | 13.0 | 0.00 | 0.00 | 0.00 | 49 | 1000.4 |
| 20260504200202 | 74 | 187 | 5.2 | 13.0 | 0.00 | 0.00 | 0.00 | 44 | 1000.0 |
| 20260504195702 | 74 | 212 | 5.2 | 12.2 | 0.00 | 0.00 | 0.00 | 47 | 1000.0 |
| 20260504195201 | 74 | 190 | 5.2 | 14.8 | 0.00 | 0.00 | 0.00 | 48 | 1000.2 |
| 20260504194701 | 74 | 212 | 4.3 | 14.8 | 0.00 | 0.00 | 0.00 | 45 | 1000.2 |
| 20260504194202 | 74 | 194 | 5.2 | 15.6 | 0.00 | 0.00 | 0.00 | 46 | 1000.1 |
| 20260504193701 | 74 | 206 | 6.1 | 15.6 | 0.00 | 0.00 | 0.00 | 45 | 1000.4 |
| 20260504193202 | 74 | 212 | 5.2 | 14.8 | 0.00 | 0.00 | 0.00 | 44 | 1000.4 |
| 20260504192701 | 74 | 204 | 5.2 | 14.8 | 0.00 | 0.00 | 0.00 | 45 | 1000.4 |
| 20260504192201 | 74 | 212 | 4.3 | 11.3 | 0.00 | 0.00 | 0.00 | 47 | 1000.4 |
| 20260504191701 | 74 | 248 | 4.3 | 10.4 | 0.00 | 0.00 | 0.00 | 45 | 1000.5 |
| 20260504191201 | 74 | 233 | 5.2 | 11.3 | 0.00 | 0.00 | 0.00 | 45 | 1000.4 |
| 20260504190702 | 74 | 242 | 5.2 | 13.0 | 0.00 | 0.00 | 0.00 | 43 | 1000.5 |
| 20260504190201 | 74 | 235 | 5.2 | 13.0 | 0.00 | 0.00 | 0.00 | 44 | 1000.4 |
| 20260504185701 | 74 | 322 | 5.2 | 10.4 | 0.00 | 0.00 | 0.00 | 45 | 1000.5 |
| 20260504185201 | 74 | 226 | 5.2 | 10.4 | 0.00 | 0.00 | 0.00 | 47 | 1000.7 |
| 20260504184701 | 74 | 237 | 4.3 | 12.2 | 0.00 | 0.00 | 0.00 | 46 | 1000.7 |
| 20260504184201 | 74 | 298 | 3.5 | 12.2 | 0.00 | 0.00 | 0.00 | 45 | 1000.7 |
| 20260504183700 | 74 | 234 | 4.3 | 10.4 | 0.00 | 0.00 | 0.00 | 44 | 1000.7 |
| 20260504183200 | 74 | 227 | 5.2 | 13.0 | 0.00 | 0.00 | 0.00 | 45 | 1000.6 |
| 20260504182944 | 74 | 229 | 5.2 | 13.0 | 0.00 | 0.00 | 0.00 | 46 | 1000.8 |
| 20260504182201 | 74 | 274 | 4.3 | 11.3 | 0.00 | 0.00 | 0.00 | 47 | 1000.8 |
| 20260504181944 | 73 | 199 | 5.2 | 13.9 | 0.00 | 0.00 | 0.00 | 47 | 1000.9 |
| 20260504181201 | 73 | 218 | 5.2 | 13.9 | 0.00 | 0.00 | 0.00 | 47 | 1000.9 |
| 20260504180701 | 73 | 56 | 4.3 | 10.4 | 0.00 | 0.00 | 0.00 | 47 | 1001.0 |
| 20260504180237 | 73 | 246 | 4.3 | 12.2 | 0.00 | 0.00 | 0.00 | 49 | 1001.0 |
| 20260504180227 | 73 | 207 | 3.5 | 10.4 | 0.00 | 0.00 | 0.00 | 47 | 1001.0 |
| 20260504175200 | 73 | 83 | 3.5 | 12.2 | 0.00 | 0.00 | 0.00 | 48 | 1000.9 |
| 20260504174700 | 72 | 290 | 3.5 | 11.3 | 0.00 | 0.00 | 0.00 | 48 | 1001.0 |
| 20260504174446 | 72 | 302 | 4.3 | 11.3 | 0.00 | 0.00 | 0.00 | 49 | 1001.3 |
| 20260504173702 | 72 | 274 | 4.3 | 13.0 | 0.00 | 0.00 | 0.00 | 50 | 1001.3 |
| 20260504173202 | 72 | 192 | 4.3 | 13.0 | 0.00 | 0.00 | 0.00 | 48 | 1001.4 |
| 20260504172701 | 72 | 207 | 4.3 | 11.3 | 0.00 | 0.00 | 0.00 | 51 | 1001.4 |
| 20260504172201 | 72 | 290 | 3.5 | 11.3 | 0.00 | 0.00 | 0.00 | 51 | 1001.4 |
| 20260504171702 | 72 | 217 | 3.5 | 8.7 | 0.00 | 0.00 | 0.00 | 50 | 1001.5 |
| 20260504171201 | 72 | 233 | 4.3 | 10.4 | 0.00 | 0.00 | 0.00 | 50 | 1001.5 |
| 20260504170701 | 71 | 322 | 4.3 | 10.4 | 0.00 | 0.00 | 0.00 | 51 | 1001.6 |
| 20260504170203 | 71 | 110 | 3.5 | 10.4 | 0.00 | 0.00 | 0.00 | 51 | 1001.7 |
| 20260504160201 | 69 | 224 | 3.5 | 7.8 | 0.00 | 0.00 | 0.00 | 54 | 1001.9 |
| 20260504150701 | 65 | 207 | 4.3 | 8.7 | 0.00 | 0.00 | 0.00 | 59 | 1002.4 |
| 20260504150200 | 64 | 271 | 4.3 | 10.4 | 0.00 | 0.00 | 0.00 | 61 | 1002.4 |
| 20260504141200 | 62 | 220 | 3.5 | 8.7 | 0.00 | 0.00 | 0.00 | 63 | 1002.7 |
| 20260504140700 | 61 | 195 | 3.5 | 9.6 | 0.00 | 0.00 | 0.00 | 64 | 1002.8 |
| 20260504140201 | 61 | 243 | 4.3 | 9.6 | 0.00 | 0.00 | 0.00 | 64 | 1002.9 |
| 20260504130701 | 57 | 98 | 3.5 | 9.6 | 0.00 | 0.00 | 0.00 | 70 | 1003.4 |
| 20260504130202 | 57 | 204 | 3.5 | 9.6 | 0.00 | 0.00 | 0.00 | 70 | 1003.4 |
| 20260504120202 | 51 | 197 | 4.3 | 7.8 | 0.00 | 0.00 | 0.00 | 78 | 1004.1 |